Northeast Philadelphia, PA

4:07 PM EDT on June 25, 2017 (GMT -0400)
Northeast Philadelphia

Weather History for KPNE - October, 2014

Change the Weather History Date:

Thursday, October 16, 2014

  Actual Average Record
Temperature  
Mean Temperature 66 °F -  
Max Temperature 72 °F 63 °F 80 °F (2008)
Min Temperature 60 °F 43 °F 35 °F (2006)
Growing Degree Days 16 (Base 50)    
Moisture  
Dew Point 59 °F    
Average Humidity 75    
Maximum Humidity 88    
Minimum Humidity 53    
Precipitation  
Precipitation 0.31 in - - ()
Sea Level Pressure  
Sea Level Pressure 29.74 in    
Wind  
Wind Speed 8 mph (SSW)    
Max Wind Speed 14 mph    
Max Gust Speed 21 mph    
Visibility 9 miles    
Events Rain    
Averages and records for this station are not official NWS values.
T = Trace of Precipitation, MM = Missing Value Source: NWS Daily Summary

Daily Weather History Graph

Daily Weather History Graph

Search for Another Location

Airport or City:

Trip Planner

Search our weather history database for the weather conditions in past years. The results will help you decide how hot, cold, wet, or windy it might be!

Date:

Astronomy

Oct. 16, 2014 Rise Set
Actual Time 7:11 AM EDT 6:18 PM EDT
Civil Twilight 6:44 AM EDT 6:46 PM EDT
Nautical Twilight 6:12 AM EDT 7:17 PM EDT
Astronomical Twilight 5:41 AM EDT 7:49 PM EDT
Moon 12:19 AM EDT (10/16) 2:28 PM EDT (10/16)
Length of Visible Light 12h 02m
Length of Day
11h 07m
Last Quarter, 42% of the Moon is Illuminated
Oct 16
Last Quarter
Oct 23
New
Oct 30
First Quarter
Nov 6
Full
Nov 14
Last Quarter

Hourly Weather History & Observations

Time (EDT) Temp. Dew Point Humidity Pressure Visibility Wind Dir Wind Speed Gust Speed Precip Events Conditions
12:54 AM 71.1 °F 66.0 °F 84% 29.78 in 10.0 mi SE 8.1 mph - N/A   Overcast
1:01 AM 71.1 °F 66.0 °F 84% 29.79 in 10.0 mi SE 10.4 mph - N/A   Overcast
1:25 AM 71.1 °F 66.0 °F 84% 29.78 in 9.0 mi SSE 8.1 mph - 0.00 in Rain Light Rain
1:37 AM 71.1 °F 66.0 °F 84% 29.78 in 2.5 mi SE 11.5 mph - 0.03 in Rain Light Rain
1:44 AM 71.1 °F 66.0 °F 84% 29.77 in 7.0 mi SE 9.2 mph - 0.03 in Rain Light Rain
1:54 AM 71.1 °F 66.0 °F 84% 29.75 in 9.0 mi ESE 9.2 mph - 0.04 in Rain Light Rain
2:50 AM 69.8 °F 66.2 °F 88% 29.74 in 5.0 mi ESE 9.2 mph - 0.05 in Rain Light Rain
2:54 AM 69.8 °F 66.2 °F 88% 29.74 in 7.0 mi ESE 9.2 mph - N/A Rain Light Rain
3:03 AM 69.8 °F 66.2 °F 88% 29.73 in 10.0 mi SE 9.2 mph - N/A   Overcast
3:34 AM 71.1 °F 66.0 °F 84% 29.72 in 1.8 mi SE 8.1 mph - 0.06 in Rain Heavy Rain
3:48 AM 69.8 °F 66.2 °F 88% 29.72 in 3.0 mi SW 8.1 mph - 0.18 in Rain Light Rain
3:54 AM 70.0 °F 64.9 °F 84% 29.73 in 7.0 mi SW 8.1 mph - 0.19 in Rain Light Rain
4:14 AM 69.1 °F 64.0 °F 84% 29.72 in 3.0 mi West 3.5 mph - 0.01 in Rain Light Rain
4:32 AM 68.0 °F 64.0 °F 87% 29.73 in 6.0 mi WSW 8.1 mph - 0.03 in Rain Light Rain
4:41 AM 68.0 °F 63.0 °F 84% 29.72 in 9.0 mi WSW 5.8 mph - 0.03 in Rain Light Rain
4:52 AM 66.2 °F 62.6 °F 88% 29.72 in 6.0 mi Calm Calm - N/A Rain Light Rain
4:54 AM 66.9 °F 63.0 °F 87% 29.72 in 8.0 mi Calm Calm - 0.04 in Rain Light Rain
5:22 AM 66.9 °F 62.1 °F 84% 29.74 in 5.0 mi SW 6.9 mph - 0.04 in Rain Light Rain
5:44 AM 66.0 °F 61.0 °F 84% 29.74 in 10.0 mi SSW 12.7 mph 18.4 mph 0.04 in Rain Light Rain
5:54 AM 66.0 °F 60.1 °F 81% 29.73 in 10.0 mi North - - 0.04 in   Overcast
6:54 AM 64.9 °F 59.0 °F 81% 29.73 in 10.0 mi South 4.6 mph - 0.00 in   Mostly Cloudy
7:41 AM 64.0 °F 59.0 °F 84% 29.74 in 10.0 mi SW 6.9 mph - N/A   Mostly Cloudy
7:54 AM 64.0 °F 55.9 °F 75% 29.76 in 10.0 mi SSW 5.8 mph - N/A   Mostly Cloudy
8:42 AM 63.0 °F 55.9 °F 78% 29.76 in 10.0 mi WSW 8.1 mph - N/A   Mostly Cloudy
8:49 AM 62.6 °F 55.4 °F 77% 29.76 in 10.0 mi WSW 5.8 mph - N/A   Mostly Cloudy
8:54 AM 63.0 °F 55.9 °F 78% 29.76 in 10.0 mi SW 5.8 mph - N/A   Mostly Cloudy
9:02 AM 63.0 °F 55.9 °F 78% 29.76 in 10.0 mi WSW 4.6 mph - N/A   Mostly Cloudy
9:32 AM 64.0 °F 55.9 °F 75% 29.77 in 10.0 mi SSW 5.8 mph - N/A   Mostly Cloudy
9:54 AM 64.0 °F 55.9 °F 75% 29.77 in 10.0 mi SSW 8.1 mph - N/A   Overcast
10:54 AM 66.0 °F 55.9 °F 70% 29.77 in 10.0 mi SW 10.4 mph - N/A   Overcast
11:35 AM 68.0 °F 55.0 °F 63% 29.76 in 10.0 mi SW 13.8 mph 20.7 mph N/A   Scattered Clouds
11:54 AM 68.0 °F 55.0 °F 63% 29.75 in 10.0 mi SW 12.7 mph - N/A   Scattered Clouds
12:13 PM 69.1 °F 54.0 °F 58% 29.75 in 10.0 mi SSW 9.2 mph - N/A   Mostly Cloudy
12:54 PM 68.0 °F 54.0 °F 61% 29.74 in 10.0 mi SSW 9.2 mph - N/A   Mostly Cloudy
1:03 PM 66.9 °F 54.0 °F 63% 29.74 in 10.0 mi SSW 5.8 mph - N/A   Mostly Cloudy
1:12 PM 68.0 °F 55.0 °F 63% 29.74 in 10.0 mi SSW 8.1 mph - N/A   Mostly Cloudy
1:36 PM 69.1 °F 54.0 °F 58% 29.73 in 10.0 mi SSW 9.2 mph - N/A   Scattered Clouds
1:54 PM 70.0 °F 54.0 °F 57% 29.73 in 10.0 mi Variable 6.9 mph - N/A   Scattered Clouds
2:54 PM 71.1 °F 53.1 °F 53% 29.72 in 10.0 mi SSW 10.4 mph - N/A   Partly Cloudy
3:54 PM 70.0 °F 52.0 °F 53% 29.71 in 10.0 mi Variable 6.9 mph - N/A   Partly Cloudy
4:54 PM 70.0 °F 52.0 °F 53% 29.71 in 10.0 mi SW 6.9 mph - N/A   Mostly Cloudy
5:54 PM 69.1 °F 52.0 °F 54% 29.71 in 10.0 mi SSW 8.1 mph - N/A   Partly Cloudy
6:54 PM 66.0 °F 54.0 °F 65% 29.73 in 10.0 mi SW 6.9 mph - N/A   Scattered Clouds
7:54 PM 64.9 °F 52.0 °F 63% 29.73 in 10.0 mi SW 11.5 mph - N/A   Clear
8:54 PM 61.0 °F 52.0 °F 72% 29.73 in 10.0 mi WSW 5.8 mph - N/A   Clear
9:54 PM 61.0 °F 53.1 °F 75% 29.74 in 10.0 mi WSW 6.9 mph - N/A   Clear
10:54 PM 60.8 °F 53.6 °F 77% 29.74 in 9.0 mi SW 3.5 mph - N/A   Mostly Cloudy
11:54 PM 61.0 °F 54.0 °F 78% 29.73 in 9.0 mi WSW 6.9 mph - N/A   Overcast